Regional Weather Roundup
Issued by NWS Wakefield, VA

Home | Current Version | Previous Version | Graphics & Text | Print | Product List | Glossary On
Versions: 1 2 3 4 5 6 7 8 9 10 11 12 13 14 15 16 17 18 19 20 21 22 23 24
000
ASUS41 KAKQ 290515
RWRAKQ

REGIONAL WEATHER ROUNDUP
NATIONAL WEATHER SERVICE WAKEFIELD VA
100 AM EDT WED JUL 29 2015

Note: "fair" indicates few or no clouds below 12,000 feet with no
significant weather and/or obstructions to visibility. * = Denotes
station may not report precipitation (e.g., rain,snow,etc.),
thunder or fog.

VAZ042-051-052>054-056-290600-
NORTHERN VIRGINIA

CITY           SKY/WX    TMP DP  RH WIND       PRES   REMARKS
WASH NATIONAL  PTCLDY    79  74  84 SE3       30.01S
DULLES         CLEAR     71  70  96 CALM      30.00S
FORT BELVOIR   CLEAR     73  72  94 CALM      30.00S FOG
QUANTICO       PTCLDY    77  72  84 CALM      30.00S
FREDERICKSBRG* FOG       76  76 100 CALM      29.99F VSB 1/4
STAFFORD*      PTCLDY    70  69  96 CALM      30.04F FOG
WARRENTON      CLEAR     71  71 100 CALM      30.00F FOG
CULPEPER*      FOG       70  70 100 CALM      30.01F VSB 1/4
MANASSAS*      PTCLDY    73  73 100 CALM      30.00S
LEESBURG*      CLEAR     73  73 100 CALM      30.02S
WINCHESTER     CLEAR     73  70  88 CALM      30.02R
FRONT ROYAL*   FAIR      72  72 100 CALM      30.00F
LURAY*         FAIR      73  73 100 NE3       30.02S
$$

VAZ048-049-060>072-079>083-290600-
CENTRAL AND SOUTH CENTRAL VIRGINIA

CITY           SKY/WX    TMP DP  RH WIND       PRES   REMARKS
RICHMOND       PTCLDY    75  73  93 SE3       29.99F
CHESTERFIELD*  FAIR      73  63  68 CALM      30.01F
PETERSBURG*    FOG       75  75 100 CALM      30.00F VSB 3/4
HANOVER        CLEAR     72  72 100 CALM      30.01S FOG
TAPPAHANNOCK*    N/A     73  70  91 CALM      30.01S FOG
QUINTON*       FAIR      74  74  99 CALM      29.99F
CHARLOTTSVILLE MOCLDY    72  70  93 CALM      30.01R FOG
GORDONSVILLE*  CLOUDY    72  72 100 CALM      30.00S FOG
ORANGE*        CLOUDY    72  72 100 CALM      30.02S FOG
LOUISA*        FOG       73  72  94 CALM      30.00S VSB 1/2
BUMPASS*       FAIR      72  71  99 S5        30.00F
FARMVILLE*     CLOUDY    74  74 100 SW3       29.98F
CREWE*         FAIR     N/A N/A N/A CALM      30.00S
FORT PICKETT*  CLOUDY    73  72  98 CALM      30.00S VSB 1/4
CHASE CITY*    MOCLDY    74  74 100 CALM      30.01F
CLARKSVILLE*   MOCLDY    73  73 100 CALM      30.01S
SOUTH HILL*    MOCLDY    73  73  99 CALM      30.07S
LAWRENCEVILLE* FAIR      75  75 100 CALM      30.00S
EMPORIA*       PTCLDY    73  72  94 SE5       30.02S
$$

VAZ088>098-290600-
SOUTHEAST VIRGINIA

CITY           SKY/WX    TMP DP  RH WIND       PRES   REMARKS
NORFOLK        CLEAR     78  70  76 S8        30.01S
VIRGINIA BEACH PTCLDY    80  72  76 S6        30.01S
NORFOLK NAVAL  PTCLDY    77  70  79 S7        30.02S
WEST POINT*    PTCLDY    77  73  88 CALM      30.01F
SALUDA*        FAIR      74  74  98 S3        30.00S
NEWPORT NEWS   CLEAR     77  71  82 S7        30.00F
LANGLEY AFB    CLEAR     78  73  84 S8        30.00F
FORT EUSTIS    CLEAR     78  78 100 SE6       29.98F
WILLIAMSBURG*  CLEAR     81  75  83 S7        30.00F
HR EXEC AP*    FAIR      72  68  88 CALM      30.03F
FRANKLIN*      CLEAR     73  71  95 CALM      30.01F
WAKEFIELD      CLEAR     74  72  93 CALM      30.00S
$$

VAZ020-022-025-037-045-290600-
WEST CENTRAL AND SOUTHWEST VIRGINIA

CITY           SKY/WX    TMP DP  RH WIND       PRES   REMARKS
STAUNTON*      MOCLDY    74  72  92 CALM      30.05S
WAYNESBORO*    FAIR      71  71 100 CALM      30.03F
HOT SPRINGS VA FOG       67  67 100 W7        30.14F VSB<1/4
LYNCHBURG      CLOUDY    73  72  96 CALM      30.03F
DANVILLE       MOCLDY    74  72  93 CALM      30.01F FOG
SOUTH BOSTON*  CLOUDY    73  71  95 CALM      30.01F
MARTINSVILLE   PTCLDY    72  72 100 CALM      30.05R FOG
ROANOKE        CLOUDY    74  72  93 E7        30.04S
BLACKSBURG     PTCLDY    70  70 100 W5        30.10F
DUBLIN*          N/A     70  70 100 CALM      30.10R FOG
MARION*        PTCLDY    69  68  95 CALM      30.14R FOG
HILLSVILLE*    FOG       67  67  99 S3        30.10S VSB 1/2
RICHLANDS*     FAIR      72  70  95 CALM      30.12R
WISE*          PTCLDY    70  70 100 SW5       30.14R FOG
ABINGDON*      CLEAR     72  71  95 N3        30.09R
$$

MDZ021>025-VAZ099-100-290600-
SOUTHERN MARYLAND AND THE DELMARVA PENINSULA

CITY           SKY/WX    TMP DP  RH WIND       PRES   REMARKS
PATUXENT RIVER CLEAR     73  71  93 CALM      30.00S
BAY BRIDGE APT   N/A     75  73  94 SW3       30.00S
LEONARDTOWN    CLEAR     72  70  94 CALM      30.02S
DOVER          CLEAR     75  72  91 S2        29.99R
GEORGETOWN     CLEAR     75  72  90 CALM      30.01S
EASTON         CLEAR     76  76 100 E3        30.04S
CAMBRIDGE      CLEAR     73  72  94 CALM      29.99F
SALISBURY      CLEAR     72  71  97 CALM      30.00F
OCEAN CITY     CLEAR     71  68  90 CALM      30.00F
WALLOPS ISLAND CLEAR     76  74  93 SW5       30.01F
ACCOMACK*      PTCLDY    72  54  53 S5        30.01S
$$

NCZ012>017-030>032-290600-
NORTH CENTRAL AND EASTERN NORTH CAROLINA

CITY           SKY/WX    TMP DP  RH WIND       PRES   REMARKS
ROANOKE RAPIDS FAIR      72  70  94 CALM      30.01S
RALEIGH        MOCLDY    79  73  82 SE3       30.02R
ELIZABETH CITY CLEAR     76  71  85 S5        30.01F
AHOSKIE*       MOCLDY    71  68  89 CALM      30.01S
EDENTON*       CLEAR     77  71  81 SE6       30.02S
CURRITUCK*     CLEAR     76  69  79 CALM      30.03S
KILL DEVIL HLS CLEAR     77  70  79 CALM      30.01S
MANTEO         CLEAR     76  71  83 SE3       30.03S
CAPE HATTERAS  MOCLDY    77  69  76 E7        30.01S
TARBORO*         N/A     75  71  87 E3        30.01F
GOLDSBORO      MOCLDY    76  71  84 VRB2      29.99S
WASHINGTON     PTCLDY    74  71  89 CALM      30.01S
GREENVILLE     MOCLDY    79  72  78 S5        30.03R
NEW BERN       PTCLDY    74  70  87 CALM      30.02S
WILMINGTON     PTCLDY    74  71  91 CALM      29.98F
$$

VAZ048-290600-
ELSEWHERE

CITY           SKY/WX    TMP DP  RH WIND       PRES   REMARKS
HARRISBURG PA  PTCLDY    76  69  79 NE5       30.00S
BALTIMORE      PTCLDY    74  71  91 CALM      30.00S
ANNAPOLIS      CLEAR     78  72  81 CALM      30.00S
ANDREWS AFB    CLEAR     71  71  98 SE2       30.00S
PHILADELPHIA   PTCLDY    80  73  79 SW5       30.00S
HENDERSON NC   MOCLDY    74  71  92 CALM      30.02S FOG
GREENSBORO     PTCLDY    74  74 100 E3        30.01S FOG
ROCKY MOUNT    MOCLDY    77  72  84 S3        30.01S
$$

VAZ100-290600-
MARINE

STATION/POSITION TIME  TEMP    WIND        PRES    WAVE   SWELL
                       AIR SEA DIR/SP/G            HT/PER HT/PER
                 (UTC) (F)     (DEG/KT/KT) (MB)    (FT/S) (FT/S)
BRANDYWINE LGT   0400   77 75  230/  8/ 10 1016.1S
CAPE MAY NJ      0400   76 80  200/  4/  5 1015.6F
LEWES DE         0400   76 73  220/  4/  5 1015.9F
15NM E FENWICK I 0450   79 78  220/ 10/ 12 1016.1F   2/ 7   2/ 7
OCEAN-CITY-INLET 0400   76 75  250/  2/  3 1015.3F
WACHAPREAGUE VA  0400   80 84  200/  6/  7 1016.3F
GOOSES REEF MD   0500   81 82  210/  4/  4 1016.8F
COVE POINT MD    0400   79     240/  2/  3 1016.7S
SOLOMONS ISLAND  0400      83                N/A
BISHOPS HEAD MD  0400   81 84  210/  4/  4 1015.1F
POTOMAC MD       0500   81 83  190/  6/  8 1014.7F   0
CAMBRIDGE MD     0400   78 83   CALM  /  2 1015.2F
LEWISETTA VA     0400   79 84  170/  3/  3 1015.5F
RAPPAHANNOCK LGT 0400          160/ 10/ 11 1016.5S
STINGRAY PT      0500   82 83  180/ 10/ 12 1015.8F   1
YORK RVR RNG VA  0400   82     180/ 11/ 12 1015.5S
YORKTOWN VA      0400   78 83  180/  4/  4 1015.9R
JAMESTOWN VA     0500   80 85  170/  8/ 10   N/A
DOMINION TERM VA 0400   81     160/  8/ 10 1015.9F
KIPTOPEKE VA     0400      82  190/ 12/ 13   N/A
CHES BAY BRIDGE  0400   80 80  160/  8/ 11 1015.7S
CAPE HENRY VA    0400   77     180/  6/  9   N/A
CHESAPEAKE LGHT  0400   80     190/ 14/ 15 1016.7S
WILLOUBY STN VA  0400   80     170/ 10/ 11 1017.0R
CAPE HENRY BUOY  0428      81                N/A     3/11   2/11
1ST LANDING BUOY 0500      79              1016.0R   1/ 5
CAPE CHARLES BUO 0426      81                N/A     2/11   2/11
OFFSHORE WE BUOY 0411      81                N/A     3/ 6   2/ 6
64NM E OF VA BCH 0450   80 81  150/  6/  8 1016.2F   3/ 6   3/ 6
DUCK PIER NC     0400   78 70  140/  7/  7 1015.7F
44100 DUCK FRF   0424      81                N/A     2/11
44056 DUCK FRF   0411      80                N/A     2/11
OREGON INLET NC  0400   79 83  100/  4/  6 1016.3F
HATTERAS NC      0400   81 83  100/  6/  9 1016.0R
CAPE LOOKOUT NC  0500   81      90/ 12/ 13 1015.3F
$$


USA.gov is the U.S. government's official web portal to all federal, state and local government web resources and services.